Regional Weather Roundup
Issued by NWS Kansas City/Pleasant Hill, MO

Home | Current Version | Previous Version | Graphics & Text | Print | Product List | Glossary Off
Versions: 1 2 3 4 5 6 7 8 9 10 11 12 13 14 15 16 17 18 19 20 21 22 23 24 25 26 27 28 29 30 31 32 33 34 35 36 37 38 39 40 41 42 43 44 45 46 47 48 49 50

000
ASUS43 KEAX 202004
RWREAX

WEATHER ROUNDUP FOR EASTERN KANSAS AND NORTHWEST MISSOURI
NATIONAL WEATHER SERVICE KANSAS CITY/PLEASANT HILL MO
200 PM CST SAT DEC 20 2014

KSZ040-057-103>105-MOZ028-029-037-043-202100-
...KANSAS CITY METROPOLITAN AREA...

CITY           SKY/WX    TMP DP  RH WIND       PRES   REMARKS
K.C. INTL      CLOUDY    44  38  79 SW12      30.10F
K.C. DOWNTOWN  CLOUDY    47  38  71 S12       30.11F
LEES SUMMIT    CLOUDY    42  36  79 S12       30.13F
OLATHE - IXD   PTSUNNY   45  38  76 S14       30.11F
OLATHE - OJC   CLOUDY    44  37  76 S13       30.11F
LAWRENCE       MOSUNNY   47  37  68 S12       30.11F

$$

MOZ001>008-011>017-020>025-030>033-038>040-044>046-053-054-202100-
...NORTHERN AND CENTRAL MISSOURI...

CITY           SKY/WX    TMP DP  RH WIND       PRES   REMARKS
ST. JOSEPH     CLOUDY    42  36  79 SW8       30.11F
MOSBY          CLOUDY    41  36  81 SE8       30.12F
WARRENSBURG    CLOUDY    37  34  87 S10       30.17S WCI  30
WHITEMAN AFB   CLOUDY    39  35  85 SW10      30.16F WCI  33
CLINTON        CLOUDY    43  37  81 SW8       30.18F
SEDALIA        CLOUDY    41  35  79 S12       30.17F WCI  34
WARSAW         NOT AVBL
MARSHALL       CLOUDY    41  37  87 S10       30.18F WCI  35
CHILLICOTHE      N/A     38  34  85 S6        30.15F WCI  33
KIRKSVILLE     CLOUDY    38  35  89 SW8       30.15F WCI  32

$$

MOZ041-047>049-056>058-063>065-088>090-097-202100-
...EASTERN AND SOUTHERN MISSOURI...

CITY           SKY/WX    TMP DP  RH WIND       PRES   REMARKS
ST. LOUIS INTL CLOUDY    42  32  67 E5        30.22F
SPIRIT OF STL  CLOUDY    43  33  68 S5        30.21F
COLUMBIA       CLOUDY    41  36  82 S8        30.18F
JEFFERSON CITY CLOUDY    43  35  73 SW6       30.20F
MEXICO         CLOUDY    41  41 100 S6        30.18F
HANNIBAL       CLOUDY    39  32  75 SE3       30.18F HAZE
ROLLA          CLOUDY    40  34  79 SW7       30.17F
LEBANON        CLOUDY    41  36  81 SW7       30.18S
OSAGE BEACH    CLOUDY    43  34  70 SW10      30.18F
SPRINGFIELD    CLOUDY    42  36  79 S9        30.17F
BRANSON        CLOUDY    41  39  93 CALM      30.19F FOG
NEVADA         CLOUDY    41  34  75 SW6       30.18F
JOPLIN         CLOUDY    44  35  70 S10       30.18F
WEST PLAINS    CLOUDY    44  36  73 S3        30.19F

$$

IAZ060-094-KSZ022-034>040-054-083-096-NEZ052-066-093-202100-
...KANSAS...SOUTHEAST NEBRASKA AND IOWA...

CITY           SKY/WX    TMP DP  RH WIND       PRES   REMARKS
TOPEKA         MOSUNNY   49  39  68 SW9       30.10F
MANHATTAN      MOSUNNY   47  39  74 S10       30.06F
EMPORIA        SUNNY     49  39  68 SW13      30.09F
CHANUTE        MOSUNNY   47  37  68 S13       30.15F
WICHITA        PTSUNNY   47  36  65 S14G23    30.10F
OMAHA          CLOUDY    34  32  92 S6        30.08F FOG     WCI  29
LINCOLN        CLOUDY    34  30  85 SE6       30.06F WCI  29
FALLS CITY     CLOUDY    35  32  88 SW6       30.08F FOG     WCI  30
LAMONI         CLOUDY    34  33  96 S8        30.10F FOG     WCI  27
DES MOINES     CLOUDY    35  32  88 S9        30.11F FOG     WCI  28

$$



USA.gov is the U.S. government's official web portal to all federal, state and local government web resources and services.